Location: Melita
(38.4566°N, 122.6369°W)
Time: 12:52:53
(UTC+00:00)

SMAP - Pass Details

Date: 24 January 2020
Orbit: 681 x 683 km, 98.1° (Epoch: 21 February)

Event Time Altitude Azimuth Distance (km) Brightness Sun altitude
Rises 14:08:57 0° 17° (NNE) 3,049 6.5 -14.4°
Reaches altitude 10° 14:11:15 10° 22° (NNE) 2,129 5.7 -14.0°
Maximum altitude 14:15:48 54° 100° (E) 825 3.9 -13.1°
Drops below altitude 10° 14:20:20 10° 178° (S) 2,114 5.8 -12.2°
Sets 14:22:36 0° 183° (S) 3,025 6.6 -11.8°
